�������l�o���
Date,Time,MP-1(��Sv/h),MP-2(��Sv/h),MP-3(��Sv/h),MP-4(��Sv/h),MP-5(��Sv/h),MP-6(��Sv/h),MP-7(��Sv/h),MP-8(��Sv/h),����,����(m/s),���J
2016/06/30,00:00,1.272,2.047,2.193,2.180,1.795,0.630,1.179,1.025,��,6.3,��
2016/06/30,00:10,1.272,2.047,2.194,2.184,1.794,0.630,1.180,1.022,��,6.5,��
2016/06/30,00:20,1.272,2.041,2.193,2.180,1.791,0.631,1.180,1.025,��,6.2,��
2016/06/30,00:30,1.273,2.046,2.193,2.181,1.792,0.632,1.179,1.024,��,5.7,��
2016/06/30,00:40,1.273,2.048,2.192,2.179,1.793,0.630,1.178,1.024,��,5.3,��
2016/06/30,00:50,1.275,2.045,2.195,2.185,1.795,0.631,1.179,1.024,��,6.0,��
2016/06/30,01:00,1.273,2.046,2.193,2.182,1.794,0.629,1.180,1.024,��,6.5,��
2016/06/30,01:10,1.274,2.046,2.191,2.186,1.793,0.631,1.179,1.024,��,6.5,��
2016/06/30,01:20,1.275,2.047,2.194,2.181,1.796,0.631,1.181,1.024,��,7.1,��
2016/06/30,01:30,1.273,2.047,2.195,2.184,1.794,0.631,1.180,1.025,��,5.9,��
2016/06/30,01:40,1.275,2.046,2.193,2.180,1.790,0.630,1.179,1.024,��,5.9,��
2016/06/30,01:50,1.273,2.045,2.194,2.185,1.797,0.631,1.180,1.025,��,6.5,��
2016/06/30,02:00,1.273,2.045,2.197,2.181,1.797,0.631,1.178,1.025,��,6.4,��
2016/06/30,02:10,1.272,2.047,2.191,2.179,1.795,0.632,1.180,1.024,��,6.2,��
2016/06/30,02:20,1.273,2.046,2.195,2.182,1.796,0.631,1.179,1.024,��,6.4,��
2016/06/30,02:30,1.275,2.047,2.196,2.180,1.795,0.630,1.179,1.025,��,5.9,��
2016/06/30,02:40,1.275,2.044,2.194,2.182,1.794,0.631,1.179,1.024,��,6.8,��
2016/06/30,02:50,1.273,2.045,2.194,2.183,1.795,0.631,1.181,1.024,��,6.1,��
2016/06/30,03:00,1.276,2.047,2.191,2.180,1.795,0.632,1.181,1.023,��,6.1,��
2016/06/30,03:10,1.273,2.047,2.194,2.183,1.795,0.630,1.181,1.025,��,6.3,��
2016/06/30,03:20,1.273,2.045,2.192,2.182,1.795,0.632,1.180,1.023,��,5.9,�L
2016/06/30,03:30,1.274,2.043,2.193,2.182,1.795,0.632,1.180,1.023,��,5.7,��
2016/06/30,03:40,1.273,2.043,2.193,2.181,1.795,0.628,1.180,1.025,��,4.6,��
2016/06/30,03:50,1.273,2.043,2.195,2.181,1.795,0.630,1.181,1.025,��,4.7,��
2016/06/30,04:00,1.275,2.044,2.192,2.183,1.794,0.632,1.181,1.024,��,5.3,��
2016/06/30,04:10,1.276,2.045,2.191,2.184,1.793,0.629,1.180,1.023,��,5.8,��
2016/06/30,04:20,1.274,2.046,2.194,2.180,1.795,0.632,1.178,1.025,��,5.0,��
2016/06/30,04:30,1.275,2.044,2.196,2.182,1.796,0.630,1.179,1.024,��,4.4,��
2016/06/30,04:40,1.273,2.043,2.196,2.182,1.795,0.630,1.181,1.025,��,4.4,��
2016/06/30,04:50,1.272,2.046,2.195,2.182,1.795,0.631,1.181,1.026,��쓌,4.1,��
2016/06/30,05:00,1.276,2.047,2.195,2.185,1.794,0.630,1.180,1.023,��쓌,4.5,��
2016/06/30,05:10,1.277,2.047,2.192,2.180,1.792,0.632,1.180,1.023,��쓌,4.4,��
2016/06/30,05:20,1.272,2.045,2.194,2.181,1.796,0.632,1.182,1.021,��,4.3,�L
2016/06/30,05:30,1.274,2.038,2.194,2.180,1.793,0.630,1.180,1.023,��,3.9,��
2016/06/30,05:40,1.278,2.044,2.194,2.184,1.794,0.628,1.179,1.026,��,4.0,��
2016/06/30,05:50,1.274,2.045,2.194,2.180,1.793,0.631,1.183,1.025,��,4.5,��
2016/06/30,06:00,1.274,2.046,2.191,2.184,1.792,0.628,1.180,1.025,��,5.3,��
2016/06/30,06:10,1.275,2.044,2.189,2.180,1.792,0.629,1.179,1.024,��쓌,4.6,�L
2016/06/30,06:20,1.273,2.039,2.191,2.182,1.787,0.629,1.179,1.022,��,4.6,�L
2016/06/30,06:30,1.272,2.036,2.185,2.179,1.783,0.629,1.176,1.021,��,4.6,�L
2016/06/30,06:40,1.268,2.031,2.181,2.175,1.771,0.629,1.174,1.018,��,4.5,�L
2016/06/30,06:50,1.265,2.016,2.167,2.167,1.764,0.627,1.171,1.017,��,3.7,�L
2016/06/30,07:00,1.259,2.010,2.160,2.163,1.760,0.625,1.170,1.017,��쓌,3.7,�L
2016/06/30,07:10,1.256,2.003,2.153,2.157,1.752,0.624,1.166,1.013,��쓌,4.6,�L
2016/06/30,07:20,1.253,1.998,2.146,2.154,1.751,0.626,1.165,1.013,��쓌,3.8,�L
2016/06/30,07:30,1.252,1.992,2.143,2.151,1.747,0.623,1.163,1.013,��쓌,4.0,�L
2016/06/30,07:40,1.248,1.989,2.136,2.145,1.744,0.622,1.163,1.011,��쓌,4.8,�L
2016/06/30,07:50,1.246,1.980,2.129,2.138,1.732,0.621,1.160,1.011,�쓌,5.6,�L
2016/06/30,08:00,1.236,1.970,2.118,2.131,1.727,0.621,1.161,1.007,�쓌,4.4,�L
2016/06/30,08:10,1.239,1.972,2.121,2.130,1.730,0.621,1.159,1.010,�쓌,4.8,��
2016/06/30,08:20,1.238,1.974,2.120,2.130,1.731,0.619,1.159,1.009,�쓌,5.6,��
2016/06/30,08:30,1.239,1.976,2.123,2.130,1.734,0.620,1.159,1.008,�쓌,5.5,�L
2016/06/30,08:40,1.242,1.978,2.123,2.132,1.731,0.620,1.160,1.009,�쓌,5.3,��
2016/06/30,08:50,1.239,1.978,2.123,2.130,1.733,0.622,1.159,1.011,�쓌,4.8,��
2016/06/30,09:00,1.242,1.980,2.128,2.130,1.736,0.621,1.159,1.010,�쓌,4.7,��
2016/06/30,09:10,1.243,1.980,2.129,2.130,1.736,0.620,1.159,1.009,���쓌,5.1,��
2016/06/30,09:20,1.242,1.982,2.130,2.135,1.735,0.620,1.159,1.010,�쓌,5.0,��
2016/06/30,09:30,1.242,1.980,2.128,2.133,1.739,0.620,1.160,1.012,�쓌,3.9,��
2016/06/30,09:40,1.243,1.983,2.126,2.130,1.737,0.621,1.162,1.011,���쓌,3.1,��
2016/06/30,09:50,1.243,1.983,2.132,2.134,1.740,0.619,1.161,1.010,�쓌,3.9,��
2016/06/30,10:00,1.243,1.984,2.129,2.135,1.742,0.621,1.160,1.011,�쓌,4.5,��
2016/06/30,10:10,1.244,1.988,2.133,2.138,1.739,0.622,1.159,1.011,�쓌,3.6,��
2016/06/30,10:20,1.244,1.989,2.132,2.137,1.736,0.621,1.161,1.010,���쓌,3.5,��
2016/06/30,10:30,1.245,1.985,2.130,2.134,1.731,0.621,1.159,1.008,���쓌,3.4,�L
2016/06/30,10:40,1.247,1.983,2.132,2.136,1.721,0.622,1.161,1.011,���쓌,4.0,��
2016/06/30,10:50,1.247,1.986,2.129,2.136,1.722,0.621,1.160,1.010,���쓌,4.5,��
2016/06/30,11:00,1.247,1.991,2.135,2.137,1.720,0.620,1.162,1.011,���쓌,3.8,��
2016/06/30,11:10,1.245,1.991,2.134,2.136,1.715,0.622,1.161,1.011,�쓌,4.5,��
2016/06/30,11:20,1.248,1.994,2.136,2.137,1.714,0.621,1.161,1.011,�쓌,3.9,��
2016/06/30,11:30,1.248,1.993,2.135,2.136,1.709,0.622,1.164,1.011,�쓌,4.0,��
2016/06/30,11:40,1.249,1.995,2.137,2.138,1.715,0.621,1.163,1.013,���쓌,4.0,��
2016/06/30,11:50,1.248,1.998,2.139,2.140,1.709,0.621,1.163,1.014,�쓌,4.1,��
2016/06/30,12:00,1.248,1.999,2.137,2.140,1.709,0.620,1.164,1.012,�쓌,4.4,��
2016/06/30,12:10,1.250,2.000,2.143,2.141,1.712,0.621,1.165,1.013,�쓌,4.5,��
2016/06/30,12:20,1.247,1.996,2.140,2.142,1.708,0.620,1.165,1.013,�쓌,4.4,��
2016/06/30,12:30,1.249,1.999,2.140,2.144,1.713,0.619,1.165,1.012,�쓌,4.4,��
2016/06/30,12:40,1.248,1.997,2.140,2.141,1.712,0.617,1.163,1.010,��쓌,4.8,��
2016/06/30,12:50,1.248,1.997,2.142,2.141,1.711,0.619,1.165,1.011,��쓌,4.4,��
2016/06/30,13:00,1.248,2.001,2.141,2.145,1.708,0.620,1.165,1.011,��쓌,5.1,��
2016/06/30,13:10,1.250,2.000,2.144,2.143,1.704,0.622,1.166,1.013,��쓌,5.2,��
2016/06/30,13:20,1.251,2.000,2.143,2.148,1.682,0.621,1.167,1.012,��쓌,3.9,��
2016/06/30,13:30,1.250,2.002,2.143,2.148,1.669,0.622,1.168,1.012,��쓌,4.6,��
2016/06/30,13:40,1.249,2.002,2.144,2.148,1.671,0.623,1.168,1.011,��쓌,4.6,��
2016/06/30,13:50,1.250,2.001,2.145,2.146,1.696,0.623,1.165,1.013,��쓌,4.7,��
2016/06/30,14:00,1.252,2.005,2.147,2.148,1.699,0.622,1.168,1.012,��쓌,4.4,��
2016/06/30,14:10,1.250,2.005,2.150,2.145,1.701,0.623,1.166,1.013,��쓌,4.7,��
2016/06/30,14:20,1.249,2.006,2.149,2.148,1.702,0.622,1.169,1.014,��쓌,3.7,��
2016/06/30,14:30,1.253,2.007,2.147,2.150,1.704,0.623,1.169,1.014,�쓌,3.7,��
2016/06/30,14:40,1.250,2.010,2.152,2.148,1.703,0.624,1.170,1.016,�쓌,3.9,��
2016/06/30,14:50,1.254,2.008,2.151,2.149,1.707,0.624,1.169,1.013,�쓌,2.8,��
2016/06/30,15:00,1.250,2.001,2.148,2.148,1.705,0.624,1.168,1.015,�쓌,3.9,��
2016/06/30,15:10,1.251,2.009,2.152,2.151,1.704,0.624,1.167,1.014,�쓌,3.6,��
2016/06/30,15:20,1.252,2.006,2.149,2.148,1.707,0.624,1.169,1.015,�쓌,2.6,��
2016/06/30,15:30,1.252,2.008,2.153,2.150,1.708,0.623,1.168,1.013,�쓌,2.6,��
2016/06/30,15:40,1.253,2.006,2.156,2.151,1.706,0.625,1.169,1.014,�쓌,3.9,��
2016/06/30,15:50,1.253,2.006,2.153,2.152,1.703,0.624,1.169,1.014,���쓌,2.5,��
2016/06/30,16:00,1.254,2.009,2.156,2.151,1.703,0.624,1.168,1.014,���쓌,2.6,��
2016/06/30,16:10,1.253,2.008,2.156,2.154,1.708,0.622,1.168,1.013,�쓌,2.6,��
2016/06/30,16:20,1.253,2.010,2.159,2.154,1.705,0.625,1.170,1.017,���쓌,2.3,��
2016/06/30,16:30,1.253,2.011,2.159,2.154,1.708,0.623,1.169,1.015,�쓌,2.8,��
2016/06/30,16:40,1.254,2.014,2.160,2.154,1.706,0.624,1.169,1.016,�쓌,2.3,��
2016/06/30,16:50,1.257,2.013,2.160,2.153,1.708,0.624,1.169,1.014,�쓌,2.5,��
2016/06/30,17:00,1.257,2.008,2.160,2.152,1.707,0.624,1.169,1.013,�쓌,2.2,��
2016/06/30,17:10,1.256,2.011,2.161,2.150,1.709,0.627,1.170,1.015,�쓌,2.0,��
2016/06/30,17:20,1.257,2.014,2.158,2.157,1.709,0.628,1.169,1.015,��쓌,2.2,��
2016/06/30,17:30,1.258,2.013,2.161,2.155,1.709,0.625,1.170,1.015,���쓌,1.7,��
2016/06/30,17:40,1.257,2.014,2.159,2.153,1.710,0.626,1.167,1.016,��,1.9,��
2016/06/30,17:50,1.258,2.015,2.160,2.153,1.710,0.625,1.171,1.016,���쓌,0.9,��
2016/06/30,18:00,1.258,2.014,2.158,2.158,1.707,0.628,1.168,1.016,�쓌,1.9,��
2016/06/30,18:10,1.258,2.016,2.157,2.155,1.709,0.627,1.169,1.016,���쓌,1.7,��
2016/06/30,18:20,1.257,2.013,2.163,2.157,1.707,0.625,1.169,1.018,���쓌,1.2,��
2016/06/30,18:30,1.255,2.014,2.163,2.152,1.708,0.628,1.171,1.018,�쓌,1.2,��
2016/06/30,18:40,1.258,2.015,2.161,2.156,1.709,0.626,1.169,1.017,�쓌,1.9,��
2016/06/30,18:50,1.258,2.014,2.160,2.155,1.710,0.625,1.170,1.016,���쓌,1.2,��
2016/06/30,19:00,1.255,2.014,2.162,2.155,1.711,0.628,1.170,1.017,�쓌,1.2,��
2016/06/30,19:10,1.257,2.015,2.160,2.155,1.710,0.626,1.168,1.019,���쓌,0.9,��
2016/06/30,19:20,1.257,2.016,2.164,2.157,1.714,0.627,1.171,1.018,���쓌,0.9,��
2016/06/30,19:30,1.258,2.014,2.164,2.155,1.712,0.628,1.169,1.018,�쓌,0.9,��
2016/06/30,19:40,1.259,2.019,2.161,2.157,1.712,0.627,1.169,1.018,��,1.2,��
2016/06/30,19:50,1.255,2.015,2.160,2.158,1.714,0.626,1.170,1.018,��,0.9,��
2016/06/30,20:00,1.259,2.017,2.161,2.158,1.712,0.627,1.170,1.017,���쓌,1.9,��
2016/06/30,20:10,1.257,2.018,2.162,2.156,1.714,0.628,1.171,1.017,���쓌,1.2,��
2016/06/30,20:20,1.257,2.015,2.162,2.158,1.718,0.628,1.170,1.018,��,1.4,��
2016/06/30,20:30,1.258,2.018,2.159,2.156,1.714,0.626,1.172,1.019,��,1.7,��
2016/06/30,20:40,1.258,2.017,2.161,2.158,1.714,0.627,1.171,1.018,���쓌,1.2,��
2016/06/30,20:50,1.258,2.014,2.165,2.154,1.715,0.628,1.170,1.018,���쓌,1.4,��
2016/06/30,21:00,1.259,2.013,2.161,2.156,1.713,0.626,1.169,1.017,�쓌,1.7,��
2016/06/30,21:10,1.258,2.013,2.160,2.156,1.715,0.627,1.168,1.017,�쓌,0.6,��
2016/06/30,21:20,1.259,2.015,2.161,2.156,1.715,0.626,1.169,1.017,���쓌,0.9,��
2016/06/30,21:30,1.257,2.013,2.164,2.155,1.712,0.626,1.169,1.018,�k�k��,0.8,��
2016/06/30,21:40,1.257,2.016,2.160,2.154,1.713,0.626,1.171,1.019,���쓌,1.1,��
2016/06/30,21:50,1.258,2.015,2.157,2.157,1.714,0.628,1.168,1.020,��,0.9,��
2016/06/30,22:00,1.262,2.015,2.159,2.157,1.713,0.628,1.171,1.018,���쓌,0.9,��
2016/06/30,22:10,1.259,2.015,2.162,2.157,1.710,0.627,1.169,1.016,���k��,0.8,��
2016/06/30,22:20,1.259,2.012,2.160,2.156,1.710,0.628,1.170,1.017,���k��,0.6,��
2016/06/30,22:30,1.259,2.016,2.159,2.157,1.711,0.627,1.168,1.018,�k�k��,0.6,��
2016/06/30,22:40,1.260,2.015,2.161,2.155,1.711,0.626,1.169,1.021,-,CALM,��
2016/06/30,22:50,1.259,2.012,2.158,2.157,1.708,0.627,1.170,1.018,��,0.8,��
2016/06/30,23:00,1.262,2.013,2.158,2.157,1.709,0.628,1.169,1.017,-,CALM,��
2016/06/30,23:10,1.259,2.016,2.158,2.155,1.708,0.626,1.170,1.018,�k��,0.8,��
2016/06/30,23:20,1.260,2.015,2.160,2.157,1.711,0.625,1.169,1.019,�k�k��,0.6,��
2016/06/30,23:30,1.260,2.018,2.158,2.156,1.711,0.626,1.170,1.019,�k��,1.2,��
2016/06/30,23:40,1.261,2.014,2.160,2.156,1.711,0.626,1.169,1.017,�k�k��,0.9,��
2016/06/30,23:50,1.259,2.016,2.161,2.152,1.712,0.627,1.170,1.019,�k�k��,1.2,��
